Location: Remedello Sotto
(45.2500°N, 10.3667°E)
Time: 11:29:42
(UTC+00:00)

SL-08 R/B - Pass Details

Date: 03 February 2023
Orbit: 947 x 992 km, 83.0° (Epoch: 21 March)

Event Time Altitude Azimuth Distance (km) Brightness Sun altitude
Rises 17:56:40 0° 353° (N) 3,676 7.5 -15.8°
Reaches altitude 10° 17:59:11 10° 355° (N) 2,731 6.8 -16.3°
Maximum altitude 18:05:28 75° 80° (E) 1,019 4.4 -17.3°
Drops below altitude 10° 18:11:45 10° 166° (SSE) 2,739 6.8 -18.4°
Sets 18:14:17 0° 168° (SSE) 3,687 7.5 -18.9°
